Location: Asheville, NC
(35.6000°N, 82.5500°W)
Time: 02:53:59
(UTC-05:00)

OTV 5 (USA 277) - Pass Details

Date: 09 January 2018
Orbit: 404 x 417 km, 43.0° (Epoch: 07 September)

Event Time Altitude Azimuth Distance (km) Brightness Sun altitude
Exits shadow 06:37:12 21° 307° (NW) 953 ? -12.7°
Maximum altitude 06:39:11 64° 24° (NNE) 446 ? -12.3°
Drops below altitude 10° 06:42:26 10° 107° (ESE) 1,447 ? -11.7°
Sets 06:44:32 0° 111° (ESE) 2,305 ? -11.2°
